Wind_Speed
15 15 15 14 13 12 13 13 13 12 12 13 14 15 16 17 17 18 18 16 16 16 16 15 16 16 17 16 15 15 15 14 14 14 13 13 12 12 12 13 14 15 15 15
14 15 14 13 12 12 13 13 13 13 13 14 15 16 17 17 17 17 17 16 15 15 15 15 16 16 16 16 15 15 15 14 13 13 13 13 12 12 12 13 15 15 15 15
14 14 13 12 12 13 14 14 13 14 14 15 16 17 17 16 17 17 16 15 15 15 15 15 16 16 16 16 15 15 15 14 13 13 13 13 12 12 13 14 14 14 14 15
14 14 13 12 13 14 14 14 14 15 15 16 16 17 17 16 16 16 15 15 16 15 15 16 16 16 16 15 15 16 15 14 13 13 12 13 13 13 13 13 14 14 15 15
14 13 13 13 14 14 15 15 14 14 14 15 16 16 16 16 16 16 16 16 16 16 16 16 16 16 15 15 15 16 15 14 13 13 12 13 13 13 13 14 14 14 15 15
15 15 15 14 14 15 15 15 15 15 16 16 16 16 16 17 17 17 16 16 16 16 16 16 16 16 15 15 16 15 14 13 13 13 13 14 14 13 13 14 14 15 15 15
16 16 15 15 15 15 16 16 16 17 17 17 17 18 18 18 17 17 17 17 17 16 16 16 16 16 15 15 15 14 13 13 13 12 12 13 13 14 14 14 14 14 15 15
17 17 17 16 16 16 17 17 17 17 18 18 19 19 19 19 19 18 18 18 18 17 16 16 16 15 15 15 14 14 13 13 13 13 13 13 13 13 14 14 14 14 15 16
19 19 19 18 18 18 18 18 18 19 19 19 19 20 20 20 20 20 19 19 18 17 16 16 15 15 15 14 13 13 13 13 13 13 13 12 13 13 14 15 15 14 15 16
21 20 20 19 20 20 20 20 20 20 20 19 20 21 21 21 21 21 20 19 18 17 17 16 16 15 15 14 13 13 13 13 13 13 13 13 13 13 14 14 14 15 16 17
22 22 22 22 22 22 22 22 22 22 22 21 21 22 22 22 21 20 19 19 18 17 17 16 16 15 14 13 13 13 13 13 13 13 13 13 14 13 14 15 15 16 16 17
24 24 24 23 23 23 23 23 24 24 23 22 22 23 23 22 21 21 19 18 18 18 18 17 16 15 14 13 14 14 14 13 13 13 13 13 13 14 14 15 16 16 16 17
26 26 25 25 25 25 24 24 24 24 24 23 23 23 23 22 22 20 19 18 18 18 18 17 16 15 15 14 14 13 13 13 13 12 12 12 13 14 14 14 15 16 17 18
27 27 27 27 27 27 26 25 24 24 24 23 23 22 22 22 21 21 20 19 19 18 17 16 16 15 14 14 14 14 14 13 13 12 13 12 13 13 14 14 15 16 17 18
27 28 28 29 28 27 26 26 25 24 24 23 22 22 22 22 21 21 21 20 19 18 17 16 15 14 15 15 15 14 14 13 13 12 13 13 13 14 14 14 15 15 16 17
27 27 27 28 28 27 27 25 25 24 23 23 23 22 22 21 21 20 20 19 18 17 17 16 15 15 15 15 15 15 14 14 13 13 13 13 13 13 14 14 15 15 16 17
27 27 27 27 26 26 26 26 25 25 24 23 23 22 22 21 20 19 19 18 18 18 17 17 16 16 16 16 16 15 14 14 14 14 13 13 13 13 14 14 15 16 17 18
27 28 27 26 26 26 26 26 26 25 25 24 24 22 22 21 20 20 19 19 18 18 18 18 18 17 17 16 16 16 15 15 14 14 14 14 13 13 13 13 14 16 17 18
27 27 27 27 27 28 27 27 26 26 25 25 24 23 23 22 22 21 20 20 19 19 19 19 19 18 18 17 16 16 15 15 15 15 15 14 13 13 13 14 15 16 18 19
28 27 27 27 27 27 27 26 26 25 25 24 24 24 24 23 23 22 22 21 20 20 20 20 20 19 19 18 18 17 16 15 15 15 14 14 13 14 14 14 15 17 18 19
28 29 28 28 28 27 26 26 25 25 25 25 25 25 25 24 24 24 24 23 21 21 20 20 20 20 19 19 18 18 17 16 15 15 14 14 14 14 14 15 16 18 19 20
28 28 29 29 28 26 26 25 26 25 25 25 25 25 25 25 25 24 24 23 22 21 20 20 20 20 19 19 19 18 17 17 16 16 15 15 15 15 15 16 17 18 19 20
28 28 28 28 28 27 27 26 26 26 26 25 25 26 26 26 25 25 23 22 22 21 20 20 20 20 19 19 18 18 18 18 17 17 16 16 16 16 16 17 18 18 19 19
28 28 28 28 29 29 28 27 27 27 27 27 26 26 25 25 25 24 23 22 22 22 21 21 21 20 20 20 19 19 18 18 17 17 16 16 16 16 17 18 18 18 19 20
29 29 28 27 27 27 27 27 27 26 27 26 26 26 26 25 25 24 23 22 22 22 22 22 22 22 21 21 20 19 19 18 18 18 17 17 17 17 18 18 19 19 19 20
28 28 28 28 28 29 28 28 28 28 27 26 26 25 25 24 24 24 23 23 22 22 22 22 21 21 21 20 20 20 19 19 18 18 18 18 18 18 18 18 18 19 20 20
29 28 28 28 28 29 29 28 28 28 28 28 27 26 25 24 23 23 23 22 22 21 21 21 21 20 20 19 19 19 20 19 19 19 19 19 18 18 18 18 19 19 20 19
Wind_Direction
300 303 304 303 303 306 309 311 313 314 312 313 315 318 319 318 318 321 324 324 324 325 325 328 330 333 336 334 335 336 336 336 338 339 337 336 335 334 335 334 334 333 332 331
301 305 304 303 303 305 307 311 313 315 312 312 314 316 317 318 319 321 324 325 325 325 324 328 331 332 332 333 335 336 337 337 339 339 338 339 339 338 336 336 335 335 334 333
301 302 302 303 306 307 309 314 314 312 311 312 315 316 318 319 320 322 323 325 325 325 324 324 327 331 331 329 333 335 336 336 335 334 338 341 342 340 336 336 337 339 339 341
303 301 301 306 305 306 308 311 311 309 311 312 313 313 315 317 319 320 322 323 324 321 320 323 326 328 329 326 329 331 331 330 330 331 333 338 338 337 336 336 338 340 340 341
302 301 300 300 303 305 305 306 308 308 307 308 309 310 312 314 314 316 318 319 319 318 318 321 324 325 325 326 328 330 329 326 326 328 330 335 336 335 337 337 338 341 343 341
301 301 301 301 301 303 304 305 306 304 304 305 305 306 309 310 310 311 312 314 316 317 317 319 321 322 321 324 327 327 327 325 322 323 327 331 334 336 339 340 342 343 343 342
299 299 300 303 300 300 299 303 302 300 299 300 304 306 307 307 308 310 310 310 312 314 314 316 317 319 319 320 325 326 327 326 324 326 328 333 336 340 341 341 341 341 342 342
299 299 301 301 299 297 298 298 299 299 298 297 298 301 305 305 306 307 307 306 307 310 312 314 315 315 316 318 321 322 323 324 326 328 329 332 336 340 341 340 339 339 340 340
294 294 296 295 295 296 295 295 296 297 298 297 297 297 300 303 304 304 305 306 306 306 308 310 312 312 313 315 317 317 319 320 324 327 329 330 333 336 337 336 336 336 337 338
288 288 291 291 293 294 295 296 294 293 295 294 294 295 296 297 299 300 301 303 302 302 304 306 308 309 309 310 312 314 318 319 321 325 325 325 326 330 332 334 336 336 336 337
284 286 287 287 289 290 291 292 292 291 290 290 291 293 294 295 296 296 297 299 300 300 301 302 304 305 306 305 308 310 314 316 318 320 322 322 323 327 330 334 336 335 334 336
284 284 285 285 285 286 288 290 291 291 291 290 290 292 293 294 295 296 295 295 295 295 297 298 299 299 299 301 304 305 307 310 314 317 318 319 323 327 328 330 333 333 333 334
282 283 284 284 284 285 287 289 290 290 290 289 289 289 289 290 291 293 293 293 293 293 293 294 295 295 296 296 299 299 301 303 306 312 315 318 323 329 331 331 333 334 334 334
280 282 282 283 283 284 286 287 289 291 290 290 289 288 289 289 288 289 289 290 291 290 290 290 291 291 290 292 295 295 296 297 300 306 310 314 319 326 330 331 332 333 334 335
277 279 280 280 281 282 284 285 286 288 289 289 288 288 290 290 290 288 287 286 287 288 288 287 287 286 286 287 290 291 291 292 294 300 305 309 315 321 325 329 332 335 337 337
276 277 278 279 279 280 281 283 283 284 287 288 287 287 289 290 289 288 285 282 283 285 285 283 282 283 282 282 285 288 288 288 290 294 299 304 310 314 319 325 330 335 336 336
274 275 276 276 276 277 280 280 282 283 284 285 285 286 287 288 288 286 284 281 280 281 281 280 279 279 279 279 284 287 286 286 287 291 296 300 306 310 313 318 324 331 335 337
274 274 274 273 275 277 279 279 280 281 282 283 283 283 284 285 285 284 280 279 280 279 278 278 277 277 276 277 280 282 283 283 284 288 293 296 299 304 309 314 322 328 332 335
272 273 273 273 274 276 277 279 279 279 280 280 280 280 282 283 284 282 280 279 278 278 277 276 275 273 275 277 278 279 280 280 281 284 288 292 294 298 303 311 318 324 328 331
269 270 272 273 274 275 276 278 277 277 277 277 278 279 280 281 281 281 279 278 277 276 275 274 274 274 274 274 274 275 277 278 279 281 285 288 291 294 299 306 313 321 326 329
269 269 272 273 274 274 275 276 276 276 276 276 278 278 278 278 279 279 277 275 274 273 272 273 274 273 272 271 272 273 273 274 276 279 281 283 287 291 295 303 310 317 321 325
270 271 272 272 271 271 273 274 274 274 275 275 276 277 276 277 277 276 275 273 272 270 269 271 272 271 272 270 269 269 271 273 274 275 276 279 284 291 296 301 307 312 318 322
269 270 270 272 272 272 274 275 274 273 273 273 275 275 276 276 274 274 273 271 270 269 268 268 270 270 271 269 267 267 269 270 271 272 274 278 284 290 296 302 308 311 315 319
268 269 270 271 270 270 272 273 274 273 272 272 273 274 275 274 273 271 270 268 266 266 266 266 268 269 269 269 268 267 268 268 269 270 273 278 282 288 293 299 304 308 312 316
266 268 270 270 270 269 270 272 274 274 274 272 272 272 272 271 270 268 267 266 265 266 267 267 267 267 269 270 269 266 266 267 269 270 272 276 281 285 290 296 300 304 309 312
266 267 268 269 268 268 269 270 271 272 273 272 272 271 270 269 269 269 268 267 266 267 267 267 265 265 268 270 268 265 265 266 269 271 272 276 281 286 289 293 297 301 305 309
265 266 267 268 268 268 268 269 269 270 270 269 269 268 268 268 268 268 268 266 267 267 266 266 263 263 266 267 266 267 267 268 270 271 273 276 279 283 287 290 294 298 302 306
Height
5827 5825 5823 5821 5819 5818 5817 5815 5813 5811 5808 5807 5805 5803 5800 5797 5794 5791 5788 5785 5782 5779 5777 5773 5770 5766 5763 5760 5757 5754 5751 5748 5745 5742 5739 5737 5734 5731 5728 5725 5722 5718 5715 5712
5824 5822 5820 5818 5816 5815 5813 5811 5809 5807 5805 5803 5801 5799 5797 5794 5791 5788 5785 5782 5779 5777 5774 5771 5768 5765 5762 5758 5755 5752 5749 5746 5743 5740 5737 5735 5732 5729 5726 5723 5720 5716 5713 5709
5820 5818 5816 5815 5814 5811 5810 5808 5806 5804 5803 5800 5798 5796 5793 5791 5788 5784 5782 5779 5777 5774 5771 5769 5766 5763 5759 5756 5753 5750 5747 5744 5742 5739 5736 5733 5730 5727 5724 5721 5718 5714 5711 5707
5816 5815 5814 5814 5810 5808 5806 5805 5803 5800 5799 5797 5794 5792 5790 5787 5785 5782 5779 5777 5774 5771 5769 5766 5763 5760 5757 5754 5752 5749 5745 5743 5740 5737 5735 5731 5729 5726 5722 5719 5715 5712 5708 5704
5812 5810 5809 5808 5806 5804 5802 5801 5799 5797 5795 5793 5791 5789 5787 5784 5782 5779 5776 5774 5772 5769 5766 5763 5760 5757 5754 5752 5749 5746 5743 5741 5738 5735 5732 5730 5727 5724 5720 5717 5713 5710 5706 5703
5808 5806 5805 5805 5802 5800 5799 5797 5796 5793 5792 5789 5787 5786 5784 5781 5778 5776 5773 5771 5769 5766 5763 5761 5758 5755 5752 5749 5747 5744 5741 5738 5736 5733 5731 5728 5725 5722 5718 5715 5711 5708 5704 5701
5803 5801 5800 5799 5797 5797 5796 5795 5792 5789 5787 5785 5783 5781 5779 5776 5773 5771 5769 5767 5765 5763 5760 5758 5755 5752 5750 5747 5744 5741 5739 5736 5733 5731 5729 5726 5723 5720 5716 5713 5709 5706 5703 5699
5799 5797 5798 5794 5793 5792 5791 5788 5786 5785 5783 5781 5779 5776 5773 5771 5769 5767 5765 5763 5761 5759 5757 5754 5752 5749 5747 5744 5742 5739 5736 5734 5731 5729 5726 5723 5720 5717 5714 5711 5707 5704 5700 5697
5794 5794 5791 5789 5788 5786 5785 5783 5781 5779 5777 5775 5774 5772 5769 5767 5764 5762 5760 5758 5756 5755 5753 5751 5749 5746 5744 5741 5739 5736 5734 5731 5729 5726 5724 5721 5718 5715 5712 5708 5705 5702 5698 5694
5788 5786 5785 5783 5782 5780 5779 5777 5775 5774 5772 5771 5769 5767 5764 5762 5760 5758 5755 5754 5752 5750 5749 5747 5745 5743 5740 5738 5736 5734 5731 5729 5726 5724 5721 5719 5716 5713 5710 5706 5702 5699 5696 5692
5782 5781 5779 5778 5776 5775 5773 5771 5770 5768 5767 5765 5763 5761 5759 5756 5754 5752 5751 5749 5747 5746 5745 5743 5741 5739 5737 5735 5733 5731 5728 5726 5724 5721 5719 5716 5713 5710 5707 5704 5700 5697 5693 5690
5775 5774 5773 5772 5770 5768 5767 5765 5763 5761 5760 5758 5756 5754 5752 5750 5748 5747 5745 5744 5742 5741 5740 5738 5736 5735 5733 5731 5729 5728 5725 5723 5721 5719 5716 5714 5711 5708 5704 5701 5698 5694 5691 5687
5767 5766 5765 5764 5762 5761 5759 5758 5756 5754 5753 5751 5750 5748 5746 5744 5743 5741 5740 5738 5737 5736 5734 5733 5732 5730 5729 5727 5725 5724 5722 5720 5718 5716 5713 5711 5708 5705 5702 5699 5695 5692 5688 5684
5759 5758 5756 5755 5754 5753 5752 5750 5749 5747 5745 5744 5742 5741 5739 5738 5736 5735 5734 5732 5731 5730 5728 5727 5726 5725 5724 5722 5721 5719 5718 5716 5714 5712 5710 5708 5705 5702 5699 5696 5693 5689 5686 5682
5750 5749 5748 5747 5746 5745 5744 5743 5742 5740 5738 5737 5735 5734 5732 5731 5730 5728 5727 5726 5725 5724 5723 5722 5721 5720 5719 5718 5716 5715 5713 5712 5710 5708 5706 5704 5702 5699 5697 5694 5690 5687 5683 5679
5741 5740 5739 5738 5737 5736 5735 5734 5734 5732 5731 5730 5728 5727 5726 5724 5723 5722 5720 5719 5719 5718 5717 5716 5716 5715 5714 5713 5712 5710 5709 5707 5706 5705 5703 5701 5698 5696 5694 5691 5688 5684 5681 5677
5732 5731 5730 5729 5729 5728 5727 5726 5726 5725 5724 5723 5721 5720 5719 5718 5716 5715 5714 5713 5713 5712 5711 5710 5710 5709 5708 5707 5706 5705 5704 5703 5702 5700 5699 5697 5695 5693 5690 5688 5685 5682 5678 5674
5722 5722 5721 5721 5720 5720 5719 5718 5717 5717 5716 5715 5714 5713 5712 5711 5710 5709 5708 5707 5706 5706 5705 5704 5704 5703 5702 5701 5701 5700 5699 5698 5697 5696 5694 5693 5691 5689 5687 5684 5682 5679 5675 5671
5713 5713 5712 5712 5711 5711 5710 5710 5709 5709 5708 5707 5707 5706 5705 5704 5703 5702 5701 5701 5700 5700 5699 5698 5697 5697 5696 5695 5695 5694 5693 5692 5692 5691 5690 5688 5687 5685 5683 5681 5678 5675 5672 5668
5704 5703 5703 5703 5702 5702 5702 5701 5701 5700 5700 5699 5699 5698 5698 5697 5696 5695 5695 5694 5693 5693 5692 5691 5691 5690 5690 5689 5689 5688 5688 5687 5687 5686 5685 5684 5682 5681 5679 5677 5674 5671 5668 5664
5694 5694 5694 5694 5694 5693 5693 5693 5692 5692 5692 5692 5691 5691 5690 5689 5688 5688 5687 5687 5687 5686 5685 5685 5684 5684 5683 5683 5683 5683 5682 5682 5681 5680 5680 5679 5678 5676 5675 5673 5670 5667 5664 5661
5685 5685 5685 5685 5685 5685 5684 5684 5683 5683 5683 5683 5683 5682 5682 5681 5681 5680 5679 5679 5679 5678 5678 5678 5678 5677 5677 5677 5677 5677 5676 5676 5675 5675 5674 5674 5673 5671 5670 5668 5666 5663 5660 5657
5675 5676 5676 5676 5676 5675 5675 5675 5675 5675 5674 5674 5674 5674 5673 5673 5672 5672 5672 5672 5671 5671 5671 5671 5671 5671 5671 5671 5671 5671 5670 5670 5670 5669 5669 5668 5667 5666 5665 5663 5661 5658 5656 5653
5666 5666 5666 5666 5666 5666 5666 5666 5666 5666 5665 5665 5665 5665 5664 5664 5664 5664 5664 5664 5664 5664 5664 5664 5664 5664 5664 5664 5664 5664 5664 5664 5664 5663 5663 5663 5662 5661 5659 5658 5656 5653 5651 5648
5656 5656 5656 5657 5657 5657 5657 5657 5656 5656 5656 5656 5656 5656 5655 5655 5655 5656 5656 5656 5656 5656 5656 5656 5656 5657 5657 5657 5657 5657 5657 5657 5657 5657 5657 5657 5656 5655 5653 5652 5650 5648 5645 5642
5645 5646 5646 5647 5647 5647 5647 5647 5647 5647 5647 5647 5647 5647 5647 5647 5647 5647 5648 5648 5648 5648 5648 5649 5649 5649 5650 5650 5650 5650 5651 5651 5651 5651 5651 5650 5649 5648 5647 5645 5643 5641 5639 5637
5635 5636 5636 5636 5637 5637 5637 5637 5637 5638 5637 5637 5638 5638 5638 5638 5639 5639 5640 5640 5641 5641 5641 5641 5642 5642 5643 5643 5643 5643 5644 5644 5644 5644 5644 5644 5643 5642 5641 5639 5637 5635 5633 5631